Home > Weather > Horsens > Past weeks

Flag for Denmark Weather for the Past 2 Weeks in Horsens, Denmark

Now
48 °F

Sprinkles. Mostly cloudy.


Feels Like: 46 °F
Forecast: 39 / 58 °F
Wind: 6 mph from Southeast

Location: Billund Lufthavn

Current Time: May 3, 2016 at 6:06:19 AM

Latest Report: May 3, 2016 at 5:20 AM


Visibility: 5 mi

Pressure: 29.95 "Hg

Humidity: 87%

Dew Point: 45 °F

Location of HorsensLocation

Historic Weather in Horsens — Graph

°F

Horsens Temperature Yesterday

Maximum temperature yesterday: 61 °F (at 1:50 PM)
Minimum temperature yesterday: 34 °F (at 3:50 AM)
Average temperature yesterday: 50 °F

High & Low Weather Summary for the Past Weeks

 TemperatureHumidityPressure
High61 °F (May 2, 1:50 PM)100% (Apr 21, 3:50 AM)30.36 "Hg (Apr 21, 3:50 AM)
Low27 °F (Apr 25, 5:50 AM)36% (May 1, 5:20 PM)29.33 "Hg (Apr 26, 8:50 AM)
Average42 °F78%29.93 "Hg
* Reported Apr 18 4:20 AM — May 3 4:20 AM, Horsens, Weather by CustomWeather, © 2016

Note: Actual official high and low records may vary slightly from our data, if they occured in-between our weather recording intervals... More about our weather records

Advertising

Horsens Weather History for the Previous 24 Hours

Scroll right to see more
 ConditionsComfort  
Time TempWeatherWind HumidityBarometerVisibility
4:20 AM
Tue, May 3
48 °FDrizzle. Overcast.6 mph87%29.98 "Hg6 mi
3:50 AM48 °FDrizzle. Overcast.5 mph87%29.98 "Hg5 mi
3:20 AM50 °FLight rain. Overcast.3 mph82%29.98 "HgN/A
2:20 AM52 °FSprinkles. Passing clouds.2 mph77%30.01 "HgN/A
1:50 AM52 °FDrizzle. Overcast.2 mph77%30.01 "HgN/A
1:20 AM52 °FPassing clouds.2 mph72%30.01 "HgN/A
12:50 AM52 °FPassing clouds.3 mph72%30.04 "HgN/A
12:20 AM52 °FPassing clouds.3 mph72%30.04 "HgN/A
11:50 PM
Mon, May 2
52 °FPartly cloudy.2 mph72%30.04 "HgN/A
11:20 PM54 °FPassing clouds.5 mph67%30.04 "HgN/A
10:50 PM54 °FPartly cloudy.5 mph72%30.04 "HgN/A
10:20 PM54 °FPartly cloudy.5 mph72%30.07 "HgN/A
9:50 PM54 °FPartly sunny.3 mph72%30.07 "HgN/A
9:20 PM54 °FScattered clouds.3 mph72%30.07 "HgN/A
8:50 PM55 °FScattered clouds.3 mph63%30.07 "HgN/A
8:20 PM55 °FPassing clouds.6 mph63%30.09 "HgN/A
7:50 PM57 °FRefreshingly cool.6 mph59%30.09 "HgN/A
7:20 PM57 °FPassing clouds.6 mph55%30.09 "HgN/A
6:50 PM57 °FPassing clouds.9 mph55%30.09 "HgN/A
6:20 PM57 °FPartly sunny.10 mph51%30.12 "HgN/A
5:50 PM57 °FPartly sunny.13 mph51%30.12 "HgN/A
5:20 PM57 °FOvercast.14 mph48%30.12 "HgN/A
4:50 PM59 °FOvercast.13 mph42%30.15 "HgN/A
4:20 PM61 °FPartly sunny.15 mph42%30.15 "HgN/A
3:50 PM61 °FOvercast.16 mph45%30.15 "HgN/A
3:20 PM61 °FPartly sunny.16 mph45%30.15 "HgN/A
2:50 PM61 °FScattered clouds.13 mph39%30.18 "HgN/A
2:20 PM61 °FPartly sunny.16 mph39%30.18 "HgN/A
1:50 PM61 °FScattered clouds.13 mph39%30.18 "HgN/A
1:20 PM59 °FPassing clouds.15 mph45%30.21 "HgN/A
12:50 PM59 °FRefreshingly cool.13 mph48%30.21 "HgN/A
12:20 PM57 °FRefreshingly cool.13 mph55%30.21 "HgN/A
11:50 AM57 °FRefreshingly cool.13 mph48%30.24 "HgN/A
11:20 AM55 °FScattered clouds.10 mph47%30.24 "HgN/A
10:50 AM55 °FPartly sunny.10 mph51%30.24 "HgN/A
10:20 AM55 °FRefreshingly cool.12 mph51%30.24 "HgN/A
9:50 AM54 °FCool.12 mph51%30.24 "HgN/A
9:20 AM50 °FCool.10 mph62%30.27 "HgN/A
8:20 AM46 °FCool.8 mph76%30.27 "HgN/A
7:20 AM41 °FQuite cool.5 mph81%30.27 "HgN/A
6:50 AM37 °FChilly.7 mph87%30.27 "HgN/A
6:20 AM36 °FChilly.6 mph93%30.30 "HgN/A
Weather by CustomWeather, © 2016

See weather overviewHow to use our weather pages